User: anonymous   Login
Location: Unspecified
(0.0000°N, 0.0000°E)
Time: 17:26:09
(UTC+00:00)
Language:

DTUSAT 2 - Orbit

View from above orbital plane
View from above orbital plane
View from above satellite
View from above satellite

Ground track
Ground track

The orbit is defined by the following mean orbital elements,

1 40030U          26071.23768737 +.00000000 +00000-0 +53184-3 0 00003
2 40030  98.0852  62.9275 0007375 191.8808 168.2249 15.13589176    07
Epoch (UTC): 12 March 2026 05:42:16
Eccentricity: 0.0007375
inclination: 98.0852°
perigee height: 520 km
apogee height: 530 km
right ascension of ascending node: 62.9275°
argument of perigee: 191.8808°
revolutions per day: 15.13589176
mean anomaly at epoch: 168.2249°

The dashed part of the orbit path shows where the satellite is in the earth's shadow,  

DLR